Date,TemperatureHighF,TemperatureAvgF,TemperatureLowF,DewpointHighF,DewpointAvgF,DewpointLowF,HumidityHigh,HumidityAvg,HumidityLow,PressureMaxIn,PressureMinIn,WindSpeedMaxMPH,WindSpeedAvgMPH,GustSpeedMaxMPH,PrecipitationSumIn
2012-1-1,36.3,30.5,23.5,34.7,25.2,15.8,94,81,68,30.04,29.50,21,8,24,0.08
2012-1-2,23.5,17.9,11.5,15.5,9.2,4.1,74,68,59,30.38,30.03,22,5,22,0.00
2012-1-3,27.3,17.7,4.8,14.4,8.4,0.5,84,68,51,30.38,29.90,15,4,17,0.00
2012-1-4,37.4,25.7,15.6,25.9,17.6,10.3,86,72,61,30.01,29.85,13,1,13,0.00
2012-1-5,52.2,34.4,16.3,35.8,26.1,13.3,89,73,52,29.95,29.60,12,3,18,0.00
2012-1-6,50.2,39.7,28.6,38.2,29.9,24.5,87,69,54,29.77,29.59,8,2,9,0.00
2012-1-7,43.0,31.5,18.3,27.9,23.2,14.7,87,72,54,30.19,29.76,10,2,12,0.00
2012-1-8,40.3,24.4,13.1,28.5,18.6,9.9,88,79,60,30.29,30.17,12,2,13,0.00
2012-1-9,46.8,34.1,18.0,31.5,26.0,14.9,89,73,51,30.16,29.84,20,6,22,0.00
2012-1-10,52.9,33.3,18.7,35.8,25.8,15.6,90,76,51,29.97,29.70,17,2,17,0.00
2012-1-11,54.7,34.7,19.2,37.0,26.3,16.4,90,74,41,29.70,29.51,10,2,10,0.00
2012-1-12,31.8,19.4,13.1,27.3,15.8,9.9,89,86,80,29.59,29.42,15,4,17,0.00
2012-1-13,21.7,15.8,12.7,15.3,10.9,7.9,87,81,74,29.97,29.58,12,3,13,0.00
2012-1-14,25.7,12.9,4.1,13.7,6.7,-1.3,82,77,60,30.16,29.96,6,1,7,0.05
2012-1-15,32.9,23.4,13.1,24.2,17.8,8.2,87,79,70,30.19,29.85,16,4,18,0.02
2012-1-16,45.1,33.8,25.3,34.8,28.4,22.0,87,81,66,29.85,29.64,17,3,17,0.00
2012-1-17,30.6,22.2,2.1,26.6,18.0,-3.3,92,84,74,30.19,29.64,20,4,20,0.00
2012-1-18,21.7,8.1,-11.4,15.4,1.9,-15.6,84,76,62,30.20,29.69,14,4,15,0.02
2012-1-19,22.5,3.1,-12.8,18.6,-7.0,-20.0,86,63,44,30.14,29.68,17,3,17,0.00
2012-1-20,5.4,0.7,-13.4,1.2,-4.6,-19.6,85,78,60,30.16,30.06,9,2,9,0.00
2012-1-21,21.0,5.8,-15.0,13.3,0.2,-19.5,86,78,64,30.21,29.98,7,1,7,0.04
2012-1-22,33.3,24.2,12.6,31.7,21.6,8.6,94,90,82,29.98,29.38,13,4,17,0.02
2012-1-23,34.2,29.8,24.6,32.8,27.0,20.8,95,89,81,29.82,29.25,18,3,20,0.04
2012-1-24,35.4,24.4,13.5,26.2,19.2,10.6,88,81,69,30.27,29.82,15,4,17,0.02
2012-1-25,33.1,22.3,10.9,26.0,18.4,8.3,91,85,73,30.30,29.97,10,1,10,0.00
2012-1-26,35.4,30.3,25.5,32.8,28.3,23.3,93,92,90,29.98,29.62,10,2,10,0.00
2012-1-27,39.7,30.4,13.8,29.4,24.2,10.7,91,78,59,29.87,29.63,17,4,17,0.00
2012-1-28,31.8,25.8,17.4,29.6,18.0,11.9,91,73,59,29.99,29.74,22,8,22,0.00
2012-1-29,29.8,20.7,7.5,20.1,13.3,1.8,88,74,54,30.15,29.86,13,3,13,0.04
2012-1-30,46.4,30.3,10.2,33.7,23.4,5.2,88,76,61,30.10,29.72,12,3,19,0.00
2012-1-31,49.8,41.1,28.0,41.1,35.8,25.1,90,81,70,29.87,29.67,20,6,20,0.00
2012-2-1,41.5,33.8,22.8,34.5,29.7,20.3,91,85,75,30.12,29.86,8,2,14,0.00
2012-2-2,34.9,27.4,19.4,32.2,25.3,17.1,93,91,89,30.36,30.10,6,1,7,0.00
2012-2-3,31.3,29.9,28.4,29.0,27.9,26.8,94,92,90,30.44,30.31,12,4,12,0.00
2012-2-4,43.2,32.6,19.9,32.9,26.8,16.9,90,80,58,30.34,30.16,15,4,15,0.00
2012-2-5,42.4,29.4,19.2,32.6,24.8,16.4,91,83,66,30.29,30.16,12,2,14,0.00
2012-2-6,36.7,28.7,23.0,30.5,25.4,20.5,92,88,76,30.16,30.03,18,5,18,0.00
2012-2-7,31.3,25.2,12.6,28.4,20.4,9.1,92,82,74,30.40,30.13,21,6,22,0.00
2012-2-8,34.5,20.5,7.5,20.8,12.2,4.4,88,72,45,30.38,30.22,10,2,10,0.00
2012-2-9,34.9,24.4,11.3,23.5,16.8,6.3,82,73,51,30.22,29.96,22,7,22,0.00
2012-2-10,30.7,21.3,8.8,27.4,15.7,0.0,88,79,64,30.27,29.85,22,6,23,0.00
2012-2-11,21.9,13.1,5.4,3.7,-1.1,-6.0,67,53,42,30.36,30.27,19,4,19,0.00
2012-2-12,34.7,21.2,12.0,10.4,5.2,0.1,63,51,33,30.30,30.12,13,5,16,0.00
2012-2-13,30.9,23.0,7.9,26.2,17.0,1.3,90,78,59,30.12,29.75,17,2,17,0.00
2012-2-14,33.6,30.9,27.7,29.4,27.3,25.4,92,86,81,29.90,29.71,16,4,16,0.06
2012-2-15,46.9,35.8,30.2,38.2,31.5,27.1,91,84,69,29.98,29.90,12,2,12,0.00
2012-2-16,46.8,35.5,25.2,32.6,27.2,19.2,92,73,46,30.07,29.92,21,4,21,0.00
2012-2-17,44.6,30.6,17.8,34.3,25.0,14.2,89,80,65,30.08,29.90,19,3,19,0.02
2012-2-18,40.1,29.3,16.5,25.1,19.9,12.4,85,70,45,30.20,29.99,12,2,12,0.00
2012-2-19,43.5,26.0,11.5,28.1,17.5,8.1,88,72,45,30.16,30.09,7,1,8,0.00
2012-2-20,43.2,30.0,15.3,27.1,21.2,11.8,88,71,47,30.19,29.78,14,3,19,0.00
2012-2-21,43.5,34.4,29.5,35.7,29.1,22.5,91,81,70,29.77,29.53,22,6,22,0.06
2012-2-22,42.3,31.3,23.0,32.7,26.0,19.4,91,81,63,29.59,29.37,13,3,14,0.00
2012-2-23,38.5,30.2,20.5,29.9,25.5,18.2,93,83,63,29.55,29.40,12,3,13,0.00
2012-2-24,34.3,28.2,18.1,29.4,23.5,11.9,93,83,70,29.88,29.49,18,4,20,0.10
2012-2-25,31.8,20.3,10.6,18.1,12.2,4.4,82,71,56,30.21,29.89,14,3,16,0.00
2012-2-26,46.0,30.9,11.8,33.3,22.1,7.6,85,71,59,30.19,29.82,22,8,22,0.00
2012-2-27,38.5,28.3,16.9,24.6,19.3,13.0,85,69,53,30.40,29.96,21,6,21,0.00
2012-2-28,38.5,29.9,16.9,32.4,24.8,13.0,92,82,65,30.38,29.69,15,4,20,0.19
2012-2-29,46.6,36.3,31.3,43.9,32.8,28.7,95,87,69,29.68,29.34,24,10,24,0.18
2012-3-1,36.7,34.0,31.1,31.7,30.0,28.4,90,85,81,29.77,29.56,11,2,13,0.00
2012-3-2,34.7,31.4,28.6,31.4,29.4,26.3,95,92,87,29.74,29.43,11,2,15,0.00
2012-3-3,33.1,27.7,23.7,26.8,22.7,19.9,93,81,70,29.77,29.51,18,6,20,0.02
2012-3-4,30.0,24.3,18.5,23.1,20.2,15.4,89,84,75,29.99,29.75,6,1,7,0.02
2012-3-5,36.1,24.5,3.0,25.2,17.9,-0.1,90,77,55,30.27,29.99,13,2,13,0.08
2012-3-6,64.2,46.1,27.5,46.3,34.2,23.3,85,65,51,30.06,29.71,20,7,20,0.00
2012-3-7,62.1,53.7,38.8,51.3,44.0,36.1,91,70,58,29.82,29.66,22,9,23,0.39
2012-3-8,42.6,36.1,31.1,35.9,26.5,19.3,91,69,47,30.14,29.78,21,6,21,0.02
2012-3-9,38.5,29.5,21.7,19.3,10.8,6.7,62,46,31,30.50,30.14,19,3,19,0.00
2012-3-10,61.5,43.8,26.4,34.9,26.5,14.8,68,52,35,30.37,30.06,25,8,28,0.00
2012-3-11,66.6,51.8,34.3,44.0,32.3,25.5,75,50,27,30.16,29.91,18,4,20,0.02
2012-3-12,59.2,51.9,45.7,51.4,46.7,40.6,92,83,63,29.91,29.67,21,6,24,0.29
2012-3-13,70.0,50.9,31.3,45.2,37.5,29.0,92,65,31,30.06,29.83,11,2,11,0.00
2012-3-14,52.9,38.0,34.9,50.0,33.8,30.7,90,85,81,29.98,29.86,0,0,0,0.00
2012-3-15,81.3,61.7,47.1,64.2,50.8,42.4,95,72,34,29.98,29.86,11,2,13,0.00
2012-3-16,80.4,60.4,38.5,63.7,51.9,36.0,92,75,54,30.00,29.89,13,2,13,0.00
2012-3-17,81.1,68.1,57.0,64.5,57.8,52.6,89,71,50,29.98,29.85,19,4,19,0.00
2012-3-18,81.3,67.0,52.0,62.4,56.2,47.6,89,70,50,29.96,29.84,21,4,21,0.00
2012-3-19,73.8,64.4,57.0,65.0,59.2,54.1,93,83,71,29.94,29.78,16,3,18,0.28
2012-3-20,81.3,69.8,55.6,62.1,54.4,47.7,82,60,37,29.96,29.81,21,6,23,0.00
2012-3-21,82.6,67.3,54.3,61.2,53.8,47.4,86,64,38,30.02,29.93,16,3,21,0.00
2012-3-22,79.7,64.1,53.8,61.7,56.5,50.1,91,78,51,30.04,29.96,14,2,19,0.02
2012-3-23,64.2,60.2,56.1,60.3,57.5,54.1,94,91,85,29.96,29.78,10,2,10,0.17
2012-3-24,58.8,56.3,52.7,55.5,54.1,50.1,96,92,88,29.94,29.77,8,1,8,0.00
2012-3-25,72.1,59.3,43.5,60.9,51.6,37.3,96,77,54,30.15,29.93,16,2,16,0.02
2012-3-26,43.5,38.7,33.4,38.0,29.6,26.5,84,70,55,30.36,30.11,20,9,20,0.04
2012-3-27,72.7,54.3,38.5,58.9,42.1,27.2,75,64,55,30.14,29.65,23,9,24,0.00
2012-3-28,62.2,53.4,36.1,46.1,40.2,31.7,84,62,48,30.01,29.72,18,5,20,0.00
2012-3-29,57.0,43.5,32.4,40.3,34.5,29.2,88,72,51,30.12,29.87,22,6,22,0.00
2012-3-30,43.2,39.9,35.8,40.5,37.2,30.4,93,90,80,29.91,29.72,12,4,12,0.55
2012-3-31,45.1,39.4,34.9,40.6,36.9,33.3,94,91,84,29.95,29.74,10,3,11,0.00
2012-4-1,59.9,47.0,36.3,50.9,42.2,34.2,93,84,71,29.76,29.66,16,5,16,0.00
2012-4-2,64.6,51.7,42.1,45.8,40.6,36.5,85,67,46,29.88,29.75,21,8,21,0.00
2012-4-3,63.7,53.1,44.8,50.2,43.9,37.4,83,71,59,29.96,29.76,22,5,24,0.00
2012-4-4,62.2,49.9,36.3,41.7,35.4,29.2,89,61,34,29.99,29.88,20,6,20,0.00
2012-4-5,53.2,42.5,32.5,34.9,30.0,24.3,82,62,43,30.16,29.97,21,9,21,0.00
2012-4-6,59.4,43.4,24.6,35.0,28.2,19.7,84,57,36,30.27,30.15,12,2,12,0.00
2012-4-7,64.6,46.7,28.0,45.0,35.6,24.0,89,68,41,30.21,30.04,19,4,19,0.02
2012-4-8,63.5,46.8,31.3,41.8,33.1,26.7,91,64,30,30.23,30.01,20,3,23,0.00
2012-4-9,57.9,43.0,27.0,36.8,26.0,20.1,91,56,29,30.03,29.92,27,4,27,0.00
2012-4-10,46.8,35.8,25.9,24.2,18.8,15.3,67,51,38,30.14,30.03,22,2,22,0.00
2012-4-11,57.4,40.1,25.2,33.0,25.2,16.7,81,57,37,30.26,30.14,11,1,11,0.00
2012-4-12,63.3,44.4,24.1,36.5,29.7,21.0,90,61,32,30.22,30.08,16,2,16,0.00
2012-4-13,58.6,48.8,33.1,43.4,35.4,26.3,80,61,38,30.13,29.90,21,5,22,0.00
2012-4-14,73.9,59.9,48.7,58.3,51.3,43.3,89,74,51,29.92,29.69,13,3,13,0.16
2012-4-15,73.0,65.0,58.1,63.6,60.3,55.4,94,85,70,29.72,29.39,27,8,27,0.53
2012-4-16,65.5,50.0,39.6,59.2,42.1,32.3,90,75,59,30.16,29.35,23,10,28,0.02
2012-4-17,60.6,44.8,27.5,38.9,33.9,25.0,92,68,41,30.32,30.15,8,1,11,0.00
2012-4-18,70.0,54.9,41.9,54.7,44.3,36.4,88,68,49,30.18,29.85,22,6,23,0.00
2012-4-19,52.5,44.3,37.8,46.1,41.0,35.2,93,88,76,29.98,29.74,21,6,21,0.63
2012-4-20,49.1,39.6,29.8,39.4,35.4,27.3,93,85,67,30.01,29.69,22,5,22,0.21
2012-4-21,55.2,42.6,28.2,36.7,31.6,25.9,94,68,42,30.04,29.94,11,2,11,0.00
2012-4-22,54.1,43.7,29.8,35.0,29.0,25.1,84,58,38,30.12,29.96,20,5,20,0.00
2012-4-23,61.7,44.5,26.4,39.4,31.7,23.6,91,65,38,30.10,29.80,13,2,20,0.00
2012-4-24,67.8,49.4,31.6,43.2,36.6,28.0,89,65,39,29.81,29.61,13,1,13,0.00
2012-4-25,62.8,49.4,37.8,53.6,44.5,34.8,91,84,68,29.70,29.59,13,3,13,0.20
2012-4-26,58.8,48.2,34.3,45.9,36.5,25.5,93,67,36,30.13,29.67,22,3,22,0.02
2012-4-27,55.0,41.9,27.1,36.2,26.4,17.1,90,58,33,30.24,30.06,18,6,18,0.00
2012-4-28,45.5,41.4,37.0,41.9,34.4,20.3,90,78,41,30.19,29.98,22,9,23,0.13
2012-4-29,55.8,45.0,34.3,41.1,35.9,29.5,93,72,42,30.23,30.01,21,6,21,0.51
2012-4-30,56.3,48.6,42.6,51.5,45.5,40.4,95,89,83,30.01,29.88,7,1,7,0.08
2012-5-1,66.9,51.8,34.7,57.6,47.6,32.8,95,86,71,29.94,29.75,12,3,12,0.02
2012-5-2,79.5,66.9,56.8,65.3,61.0,54.8,95,83,59,29.83,29.60,17,4,17,0.36
2012-5-3,83.7,71.9,61.9,73.4,64.7,59.3,92,79,59,29.83,29.75,9,2,11,0.15
2012-5-4,65.8,60.5,55.0,63.7,56.9,48.6,95,88,77,30.01,29.82,18,5,19,0.00
2012-5-5,64.6,57.0,51.6,57.5,52.9,48.8,93,86,78,30.04,29.88,20,6,22,0.02
2012-5-6,67.8,57.7,52.0,63.1,55.3,49.7,96,92,85,30.01,29.85,13,4,14,0.85
2012-5-7,72.3,59.7,52.9,59.7,53.0,46.0,96,80,52,29.91,29.80,8,1,8,0.00
2012-5-8,67.6,55.6,45.7,50.7,46.0,42.0,92,72,48,29.86,29.80,19,3,20,0.02
2012-5-9,65.1,51.2,38.1,50.2,42.6,34.8,94,74,46,29.93,29.83,9,1,11,0.00
2012-5-10,71.2,54.0,34.0,48.2,38.5,31.6,93,62,31,29.98,29.91,9,1,10,0.00
2012-5-11,79.7,61.1,38.5,58.8,48.2,34.9,87,65,47,30.09,29.94,21,4,24,0.00
2012-5-12,68.4,59.5,48.0,52.7,48.5,43.1,87,68,52,30.24,30.09,16,4,17,0.00
2012-5-13,75.7,58.3,38.8,52.4,43.0,36.7,92,62,31,30.24,30.07,12,1,12,0.00
2012-5-14,80.4,60.2,35.8,52.4,42.5,33.4,92,59,27,30.08,29.92,16,2,16,0.00
2012-5-15,87.8,67.2,45.1,55.8,47.8,39.8,88,54,28,29.92,29.73,22,5,22,0.00
2012-5-16,71.8,56.9,39.9,46.9,41.4,35.9,88,60,32,30.10,29.92,18,2,18,0.00
2012-5-17,75.9,59.6,37.0,47.5,41.0,33.4,90,55,30,30.13,29.95,14,2,14,0.00
2012-5-18,86.2,67.3,45.3,53.3,45.7,38.2,78,49,27,29.99,29.87,16,2,19,0.00
2012-5-19,89.8,71.3,47.8,62.3,54.0,41.8,84,57,35,29.96,29.86,15,2,15,0.00
2012-5-20,85.8,71.8,55.0,65.6,58.3,45.5,86,64,47,30.04,29.86,22,6,22,0.00
2012-5-21,74.1,60.0,46.2,49.0,44.5,39.4,82,59,37,30.15,30.04,17,2,17,0.00
2012-5-22,77.2,59.0,37.8,49.8,43.3,34.8,91,60,33,30.09,29.85,8,1,8,0.00
2012-5-23,82.2,65.3,44.2,51.7,45.1,38.1,80,51,30,29.87,29.62,13,3,14,0.00
2012-5-24,89.6,73.9,57.0,63.7,55.0,43.1,87,54,35,29.66,29.39,23,6,24,0.05
2012-5-25,75.7,63.9,52.7,60.2,54.8,49.5,91,74,48,30.09,29.63,11,2,15,0.02
2012-5-26,76.1,64.1,56.7,66.0,58.4,54.5,93,82,70,30.16,29.96,22,5,22,0.51
2012-5-27,93.2,77.4,62.4,74.3,63.7,56.8,87,66,37,29.96,29.70,13,2,13,0.00
2012-5-28,85.6,74.8,64.4,70.0,64.4,56.3,92,71,57,29.75,29.58,19,4,22,0.42
2012-5-29,74.5,63.8,49.8,58.2,50.1,44.4,92,64,40,29.84,29.74,22,5,24,0.00
2012-5-30,64.0,56.2,50.4,50.1,46.5,43.3,88,71,55,29.94,29.81,11,1,12,0.02
2012-5-31,54.0,49.5,45.5,47.6,43.2,39.1,92,80,62,30.00,29.90,15,5,17,0.35
2012-6-1,69.6,56.5,45.1,47.2,43.3,39.7,87,64,36,29.92,29.72,16,2,16,0.00
2012-6-2,75.7,60.5,41.2,50.4,44.8,37.9,90,60,34,29.75,29.67,12,2,14,0.00
2012-6-3,80.2,63.2,41.7,57.0,50.0,39.6,93,66,40,29.83,29.74,10,2,11,0.00
2012-6-4,82.2,69.1,57.4,61.8,56.0,50.9,93,66,41,29.91,29.79,10,2,10,0.04
2012-6-5,75.6,63.3,49.6,58.7,52.6,45.1,89,70,51,30.01,29.90,14,2,14,0.00
2012-6-6,79.9,61.6,40.6,55.3,48.4,38.5,93,66,37,30.08,30.01,9,1,9,0.00
2012-6-7,83.1,65.5,43.5,57.4,50.7,41.2,93,64,35,30.12,30.00,10,1,10,0.00
2012-6-8,86.2,70.0,49.1,60.8,55.0,46.9,93,64,38,30.03,29.83,18,4,18,0.00
2012-6-9,88.7,74.6,55.9,59.4,55.7,51.3,85,55,34,29.87,29.77,16,4,18,0.00
2012-6-10,88.5,74.9,54.9,65.7,59.1,51.6,91,61,38,29.88,29.77,22,4,22,0.00
2012-6-11,85.1,74.4,64.8,70.1,62.9,50.9,91,68,54,29.86,29.73,17,4,17,0.21
2012-6-12,71.8,61.6,46.0,51.3,47.0,42.3,87,60,42,30.10,29.86,12,2,12,0.00
2012-6-13,77.2,61.0,41.2,55.2,47.3,38.8,93,64,39,30.16,30.01,11,2,11,0.00
2012-6-14,84.2,67.5,44.2,58.8,51.5,40.6,89,59,39,30.06,29.90,15,3,16,0.00
2012-6-15,91.2,74.1,53.8,64.0,57.6,50.1,90,60,35,30.00,29.93,13,2,13,0.00
2012-6-16,86.5,75.8,66.9,69.7,62.0,53.3,77,63,52,29.97,29.77,22,4,22,0.00
2012-6-17,86.7,74.8,57.4,66.4,58.5,52.9,91,60,34,29.86,29.68,10,2,17,0.00
2012-6-18,91.9,81.5,70.5,72.5,68.6,58.4,81,66,52,29.70,29.53,22,7,26,0.00
2012-6-19,93.0,83.9,75.4,71.4,68.4,64.6,72,61,46,29.83,29.70,19,6,20,0.00
2012-6-20,92.8,83.3,73.2,71.1,68.5,65.9,80,62,47,29.88,29.73,21,7,24,0.00
2012-6-21,84.4,72.0,55.6,65.2,59.4,51.1,91,67,41,29.96,29.78,14,2,14,0.02
2012-6-22,85.6,69.0,49.8,62.1,53.9,47.5,93,63,34,29.98,29.89,12,2,12,0.00
2012-6-23,83.7,68.5,49.3,63.8,56.9,46.7,93,69,44,30.00,29.91,9,1,9,0.00
2012-6-24,90.7,73.5,55.9,67.9,62.6,53.3,93,71,46,30.00,29.88,14,2,17,0.00
2012-6-25,79.2,67.4,52.9,58.1,49.1,43.8,79,54,36,30.10,30.00,15,6,17,0.00
2012-6-26,83.7,66.3,41.7,55.9,49.9,38.7,91,60,36,30.06,29.86,12,2,12,0.00
2012-6-27,93.7,76.3,53.8,67.9,58.8,48.9,84,58,37,29.87,29.67,22,4,22,0.00
2012-6-28,96.1,82.9,61.5,79.6,68.6,51.8,87,63,42,29.86,29.69,14,2,14,0.00
2012-6-29,91.8,72.1,51.6,66.1,58.1,48.7,91,65,27,29.94,29.74,14,2,14,0.00
2012-6-30,94.8,77.2,59.7,70.3,64.5,57.7,94,69,39,29.83,29.75,8,1,8,0.00
2012-7-1,96.1,78.7,58.5,70.2,65.0,56.2,93,67,40,29.93,29.82,12,1,12,0.00
2012-7-2,99.7,82.4,65.8,76.7,69.3,63.6,94,68,38,29.93,29.82,12,2,16,0.00
2012-7-3,98.2,85.0,71.4,74.9,71.3,66.0,84,65,42,29.89,29.73,21,4,21,0.00
2012-7-4,103.3,88.3,72.3,76.1,71.0,68.1,91,61,34,29.85,29.76,15,4,17,0.00
2012-7-5,104.2,87.5,70.0,74.6,70.7,67.2,92,62,35,29.90,29.82,17,2,17,0.00
2012-7-6,103.6,87.9,70.9,78.5,70.8,66.1,91,61,31,29.94,29.85,12,2,12,0.00
2012-7-7,91.9,81.1,70.3,75.4,68.4,58.4,87,66,53,30.02,29.88,21,5,21,0.00
2012-7-8,91.0,76.6,59.9,63.2,59.5,55.9,89,59,33,30.07,29.96,11,2,12,0.00
2012-7-9,91.9,76.3,58.8,66.7,59.4,54.8,88,59,34,30.03,29.95,11,2,12,0.00
2012-7-10,87.3,72.7,59.2,61.3,55.4,50.9,87,57,35,30.10,30.03,12,2,12,0.00
2012-7-11,89.4,72.2,50.2,59.2,52.0,47.0,90,55,26,30.13,30.01,13,2,14,0.00
2012-7-12,93.0,74.2,52.0,64.8,56.4,48.8,90,59,32,30.06,29.96,12,1,12,0.00
2012-7-13,90.7,74.2,54.5,67.6,60.3,51.5,91,65,40,30.02,29.92,10,2,14,0.00
2012-7-14,92.3,77.7,66.2,69.5,65.3,61.9,92,68,39,30.02,29.89,15,2,18,0.00
2012-7-15,98.4,80.4,62.1,72.7,64.9,59.9,93,64,33,30.01,29.91,10,1,10,0.00
2012-7-16,99.0,82.7,62.4,71.3,65.3,59.8,91,60,33,29.96,29.75,17,4,20,0.00
2012-7-17,101.3,87.1,74.1,73.9,69.6,66.7,85,60,35,29.82,29.72,15,3,21,0.00
2012-7-18,94.8,78.1,68.9,75.9,70.0,64.9,94,78,53,29.93,29.75,16,5,18,1.36
2012-7-19,75.4,70.1,64.0,72.1,66.8,61.2,95,89,80,30.01,29.82,16,4,16,0.27
2012-7-20,85.6,72.7,62.4,65.4,61.5,58.7,91,70,43,30.08,29.98,12,3,13,0.00
2012-7-21,86.2,72.5,59.7,71.0,65.1,57.9,95,79,57,30.06,29.96,12,2,12,0.00
2012-7-22,88.9,75.7,63.0,72.1,67.2,61.2,95,76,53,30.04,29.88,10,2,10,0.02
2012-7-23,97.5,82.5,69.6,76.6,71.6,63.8,91,71,46,29.89,29.84,8,1,12,0.00
2012-7-24,82.8,74.4,68.7,72.7,69.5,62.1,95,85,70,30.01,29.85,11,2,11,0.75
2012-7-25,96.6,79.7,62.8,77.2,69.1,59.1,92,72,49,29.88,29.50,16,3,22,0.21
2012-7-26,88.9,76.9,65.8,75.0,67.1,60.1,93,74,41,29.73,29.53,14,2,18,0.24
2012-7-27,82.6,70.2,60.6,67.0,63.4,58.6,94,80,56,29.98,29.72,12,1,12,0.02
2012-7-28,84.9,70.9,55.8,68.0,62.1,54.0,95,76,50,30.09,29.98,6,1,6,0.00
2012-7-29,79.0,69.5,58.8,69.6,64.6,56.9,95,85,69,30.03,29.92,7,1,7,0.00
2012-7-30,90.3,75.6,62.2,74.2,68.0,60.8,95,79,56,29.93,29.79,10,1,10,0.10
2012-7-31,87.6,75.6,64.2,70.5,66.3,61.3,94,75,49,29.91,29.81,10,1,10,0.02
2012-8-1,91.2,74.6,56.3,71.1,64.7,54.5,95,74,45,29.92,29.78,9,1,10,0.00
2012-8-2,90.3,77.6,65.8,70.9,67.2,63.4,93,73,48,29.84,29.76,8,1,8,0.00
2012-8-3,93.0,79.2,63.5,73.2,67.9,61.5,94,71,46,29.86,29.78,10,2,12,0.00
2012-8-4,88.9,74.7,65.3,75.4,68.2,62.1,92,81,59,29.86,29.65,16,1,20,0.19
2012-8-5,79.5,68.0,51.8,63.0,57.3,48.9,95,71,44,30.11,29.88,10,1,11,0.02
2012-8-6,84.9,65.6,45.3,62.2,54.0,43.4,94,70,38,30.12,29.93,11,1,13,0.00
2012-8-7,92.5,73.3,55.0,69.7,61.1,52.7,94,69,41,29.94,29.85,9,1,9,0.00
2012-8-8,80.2,65.8,55.0,69.1,61.7,52.6,93,87,67,29.98,29.89,10,1,10,0.18
2012-8-9,68.2,63.3,56.5,63.2,60.2,54.4,94,89,75,29.92,29.86,20,3,20,0.39
2012-8-10,75.4,64.1,51.1,62.1,54.9,47.3,94,74,45,29.96,29.88,19,3,19,0.00
2012-8-11,78.6,61.5,45.3,57.2,51.4,43.2,93,73,43,30.00,29.93,11,1,13,0.00
2012-8-12,75.7,60.6,48.2,61.7,54.4,46.0,94,82,52,29.99,29.92,8,1,8,0.00
2012-8-13,79.0,64.8,56.1,63.5,58.9,53.8,94,83,54,29.96,29.88,8,1,10,0.02
2012-8-14,82.8,66.7,49.8,66.8,57.8,48.1,95,76,47,29.91,29.83,13,1,13,0.00
2012-8-15,86.0,71.3,61.0,68.4,60.9,57.1,95,73,40,29.89,29.76,15,2,15,0.02
2012-8-16,75.0,67.6,57.4,66.9,59.6,49.5,92,77,55,29.91,29.66,17,2,17,0.94
2012-8-17,73.9,60.8,47.3,55.4,49.7,44.3,91,70,42,29.98,29.90,11,1,11,0.00
2012-8-18,77.5,59.6,41.4,57.4,49.2,39.5,94,72,40,29.98,29.88,9,0,9,0.00
2012-8-19,77.2,60.0,45.0,61.6,53.2,42.9,94,80,53,29.95,29.86,7,0,9,0.00
2012-8-20,77.9,60.7,46.0,61.9,50.1,42.9,95,72,34,29.98,29.90,10,1,11,0.00
2012-8-21,81.5,61.5,41.2,57.8,48.8,39.2,94,68,35,30.05,29.97,7,0,7,0.00
2012-8-22,86.5,65.6,43.2,61.4,53.5,41.0,94,69,37,30.07,29.94,11,1,11,0.00
2012-8-23,91.9,73.7,60.4,65.4,59.8,55.8,89,65,36,30.00,29.91,8,1,10,0.00
2012-8-24,91.6,73.1,58.6,69.3,60.2,55.3,90,67,34,29.97,29.88,12,1,13,0.00
2012-8-25,90.9,72.4,53.4,67.1,60.1,51.4,94,69,36,29.98,29.90,15,2,15,0.00
2012-8-26,77.9,69.9,63.7,72.3,66.8,62.0,95,90,81,29.97,29.90,6,1,6,0.18
2012-8-27,87.4,72.0,56.3,71.1,61.3,53.4,96,74,39,30.04,29.96,10,1,10,0.02
2012-8-28,85.8,68.4,50.4,68.3,59.4,48.5,95,76,47,30.10,29.96,7,1,7,0.00
2012-8-29,89.2,72.3,57.6,67.4,62.0,55.7,94,73,47,30.03,29.90,14,2,14,0.00
2012-8-30,91.2,75.7,59.7,68.2,63.8,57.4,93,70,45,29.93,29.82,18,4,22,0.00
2012-8-31,92.5,77.6,60.6,70.7,64.1,54.7,88,65,44,30.04,29.88,10,2,12,0.00
2012-9-1,75.9,70.1,65.5,58.8,56.3,53.5,74,62,50,30.05,29.95,19,6,19,0.00
2012-9-2,86.0,73.5,64.0,72.1,64.6,56.3,86,74,61,29.96,29.85,16,4,16,0.00
2012-9-3,90.9,73.4,58.3,73.7,65.7,56.0,93,79,54,29.91,29.80,6,0,10,0.02
2012-9-4,93.9,75.1,59.0,73.7,64.9,57.3,96,74,44,29.87,29.72,21,1,21,0.27
2012-9-5,84.4,70.3,58.8,66.8,61.7,56.2,92,76,53,29.90,29.70,17,2,17,0.16
2012-9-6,81.7,66.2,53.2,61.6,54.7,50.2,95,71,36,29.91,29.80,7,1,9,0.00
2012-9-7,72.0,60.0,51.1,64.0,55.6,47.9,94,86,68,29.86,29.77,16,1,16,0.04
2012-9-8,72.7,58.5,47.3,53.0,49.3,44.5,92,74,45,29.90,29.68,17,2,18,0.12
2012-9-9,73.6,58.1,44.6,55.8,50.0,41.9,93,77,48,30.11,29.87,13,1,13,0.00
2012-9-10,77.7,59.8,39.0,56.9,48.4,37.1,94,70,43,30.16,29.98,16,2,16,0.00
2012-9-11,85.3,68.7,50.2,60.2,54.6,46.6,89,63,40,30.02,29.91,21,4,24,0.00
2012-9-12,86.9,70.4,56.7,64.7,54.7,39.7,87,60,39,30.12,29.96,17,3,17,0.00
2012-9-13,60.8,53.5,39.4,51.9,47.0,37.2,92,79,50,30.29,30.12,13,1,13,0.02
2012-9-14,78.1,54.8,34.9,56.0,42.4,33.0,94,69,33,30.30,30.21,15,1,15,0.00
2012-9-15,80.8,57.8,35.8,57.3,43.5,33.4,93,65,30,30.27,30.06,16,1,16,0.00
2012-9-16,77.2,57.8,41.5,55.2,45.4,38.8,92,68,36,30.08,29.89,21,2,21,0.00
2012-9-17,71.8,55.8,46.2,62.0,50.4,42.3,92,83,66,29.90,29.75,16,1,16,0.00
2012-9-18,61.0,47.2,29.8,45.1,36.9,25.5,93,71,39,29.98,29.84,11,1,11,0.02
2012-9-19,75.4,53.7,27.0,51.1,39.6,23.9,91,63,37,29.98,29.64,23,5,27,0.00
2012-9-20,69.1,52.8,34.5,46.0,36.4,29.8,91,58,27,29.88,29.80,17,2,19,0.00
2012-9-21,56.3,48.0,33.8,49.8,42.5,29.4,90,82,61,29.88,29.75,14,2,14,0.29
2012-9-22,58.8,45.0,33.8,44.7,38.4,30.6,94,79,56,30.14,29.70,13,2,16,0.00
2012-9-23,60.6,42.7,27.3,41.9,31.7,25.3,93,69,35,30.21,30.14,12,1,12,0.00
2012-9-24,72.3,50.8,26.1,41.3,34.5,23.3,92,59,31,30.17,29.79,21,4,22,0.00
2012-9-25,82.0,60.7,40.8,52.4,43.9,36.0,86,58,29,29.86,29.73,12,2,13,0.00
2012-9-26,67.6,51.2,35.2,47.6,38.8,30.5,91,66,36,30.15,29.86,13,2,14,0.00
2012-9-27,67.6,46.4,28.2,47.0,36.3,25.4,92,71,42,30.24,30.13,14,2,15,0.00
2012-9-28,73.0,49.9,29.1,48.8,37.0,26.6,92,66,32,30.19,30.07,8,0,11,0.00
2012-9-29,80.2,55.3,34.0,49.6,39.2,31.0,91,61,28,30.08,29.93,12,1,12,0.00
2012-9-30,70.9,50.8,32.7,52.0,39.2,29.8,91,68,36,29.98,29.89,15,2,15,0.00
2012-10-1,68.2,49.8,33.6,52.5,41.4,30.9,92,75,48,29.92,29.79,4,0,7,0.00
2012-10-2,72.1,52.6,36.1,53.3,43.9,33.4,93,75,49,29.89,29.81,13,2,13,0.00
2012-10-3,76.1,53.2,33.8,57.6,42.9,31.4,94,72,38,29.96,29.87,10,1,11,0.00
2012-10-4,64.9,51.5,40.8,56.6,42.3,30.7,94,73,46,30.08,29.89,16,3,16,0.00
2012-10-5,52.0,41.5,32.2,33.4,27.3,21.1,79,58,42,30.10,30.00,17,3,17,0.00
2012-10-6,45.7,39.3,30.7,29.5,26.7,20.7,74,61,52,30.14,30.00,9,1,9,0.00
2012-10-7,52.7,39.5,23.4,29.1,22.7,14.9,74,53,30,30.14,30.02,10,1,15,0.00
2012-10-8,62.2,44.9,21.9,35.9,28.2,15.2,78,55,36,30.04,29.82,21,6,25,0.00
2012-10-9,61.5,49.2,38.8,43.0,37.3,32.8,86,65,49,29.85,29.72,20,4,20,0.14
2012-10-10,51.6,39.6,30.7,34.1,28.4,22.4,85,67,40,30.08,29.85,14,2,15,0.00
2012-10-11,64.2,48.8,34.5,38.8,33.7,24.4,78,57,38,30.26,29.94,18,3,22,0.02
2012-10-12,54.7,39.0,20.8,32.5,24.0,16.2,83,58,31,30.40,30.17,12,2,12,0.00
2012-10-13,61.3,51.4,39.9,59.6,48.2,32.1,94,89,65,30.17,29.68,15,3,16,0.47
2012-10-14,62.8,53.7,44.8,61.3,51.7,42.0,96,93,89,29.75,29.43,15,2,15,0.45
2012-10-15,60.6,46.4,33.3,43.1,38.7,30.6,91,76,51,29.90,29.75,9,1,10,0.00
2012-10-16,70.3,53.1,32.4,53.2,44.9,30.1,93,76,52,29.88,29.41,18,3,18,0.00
2012-10-17,65.3,54.8,47.5,54.5,49.9,43.8,93,84,64,29.43,29.25,14,2,14,0.57
2012-10-18,49.6,44.2,41.9,46.8,41.0,39.1,93,89,85,29.36,29.22,16,4,16,0.07
2012-10-19,49.6,43.3,35.2,45.2,40.7,33.1,95,91,83,29.62,29.34,10,1,10,0.10
2012-10-20,60.8,43.8,32.4,44.6,37.1,29.5,95,79,49,29.88,29.62,11,1,11,0.02
2012-10-21,68.5,48.3,30.0,51.7,41.2,28.2,94,78,53,29.94,29.86,11,1,13,0.00
2012-10-22,60.3,54.7,47.7,58.5,52.5,45.0,96,92,88,29.91,29.83,8,0,8,0.41
2012-10-23,64.9,59.2,54.5,63.8,57.9,53.3,97,96,93,29.87,29.77,8,2,9,0.00
2012-10-24,75.4,66.8,58.1,67.7,62.8,56.8,96,87,75,29.85,29.70,16,3,18,0.00
2012-10-25,68.9,57.1,37.0,64.2,52.9,30.6,92,86,77,30.05,29.52,21,7,21,0.34
2012-10-26,48.9,38.4,28.2,32.4,28.5,22.8,82,68,49,30.30,30.05,17,1,17,0.00
2012-10-27,46.0,31.5,20.1,32.1,22.9,17.3,91,73,43,30.32,30.23,11,1,11,0.00
2012-10-28,48.9,33.0,20.1,31.4,23.9,16.5,89,71,47,30.31,30.25,15,2,15,0.00
2012-10-29,50.4,34.1,20.1,32.9,22.9,16.6,90,67,36,30.31,30.11,15,2,15,0.00
2012-10-30,49.1,39.0,33.4,29.0,25.0,21.2,73,58,37,30.11,29.84,17,3,17,0.00
2012-10-31,49.3,35.1,23.5,32.4,22.0,14.6,79,61,33,29.85,29.80,13,1,13,0.00
2012-11-1,54.3,39.1,23.4,34.0,25.8,16.1,79,60,43,29.91,29.77,10,1,12,0.00
2012-11-2,45.9,33.7,21.9,31.0,25.4,18.9,90,73,49,30.11,29.91,11,1,11,0.00
2012-11-3,46.2,35.5,28.9,34.6,28.7,24.1,87,77,59,30.19,30.10,8,1,8,0.00
2012-11-4,49.5,34.0,20.8,34.8,27.5,17.5,91,78,54,30.21,30.12,6,0,7,0.00
2012-11-5,47.1,29.4,17.4,33.4,22.7,14.4,90,77,53,30.17,30.04,13,1,13,0.00
2012-11-6,35.4,30.4,18.7,33.8,28.1,15.3,94,91,87,30.05,29.80,7,0,7,0.12
2012-11-7,40.8,37.6,35.4,38.3,35.2,33.7,94,91,86,30.10,29.84,5,0,6,0.03
2012-11-8,51.1,40.7,30.0,38.9,34.8,27.5,92,80,63,30.11,29.98,15,2,15,0.00
2012-11-9,51.4,41.0,28.0,43.6,36.5,25.8,94,84,70,30.03,29.91,10,2,11,0.00
2012-11-10,66.9,56.8,45.1,55.3,49.6,41.8,90,78,64,29.95,29.70,20,6,21,0.00
2012-11-11,61.7,52.4,30.4,55.1,46.8,27.0,92,82,67,29.90,29.58,22,7,23,0.77
2012-11-12,30.2,25.8,22.1,26.5,19.5,15.0,86,77,71,30.25,29.88,21,7,21,0.00
2012-11-13,40.8,26.8,16.9,25.9,19.4,12.8,85,75,51,30.40,30.26,9,1,10,0.00
2012-11-14,48.7,36.0,24.6,32.0,27.6,20.2,86,73,50,30.39,30.27,13,2,15,0.00
2012-11-15,54.0,35.9,24.1,35.3,27.7,20.8,88,74,46,30.30,30.19,13,2,13,0.00
2012-11-16,48.0,33.1,22.1,37.9,28.1,19.0,91,83,67,30.41,30.29,7,1,7,0.00
2012-11-17,55.0,38.6,27.3,42.1,32.2,24.8,94,80,51,30.44,30.35,14,1,14,0.00
2012-11-18,57.7,42.6,30.0,39.5,33.3,26.6,89,71,47,30.36,30.21,12,1,12,0.00
2012-11-19,52.9,44.6,37.0,43.5,38.1,31.6,89,78,62,30.22,30.03,6,0,9,0.00
2012-11-20,58.8,46.5,32.7,48.8,41.8,29.8,93,84,63,30.13,30.02,5,0,6,0.00
2012-11-21,57.4,42.8,31.3,48.8,38.8,29.8,95,87,64,30.14,29.95,16,3,16,0.00
2012-11-22,63.0,50.4,37.0,47.4,41.8,29.0,87,73,56,29.95,29.65,22,6,23,0.00
2012-11-23,37.0,27.9,23.5,29.5,18.6,14.8,75,68,61,30.18,29.81,21,7,21,0.00
2012-11-24,34.0,26.8,21.6,20.1,17.3,13.9,73,67,56,30.20,29.84,14,2,14,0.00
2012-11-25,40.1,28.0,15.6,26.7,20.2,11.8,87,73,57,30.06,29.77,13,1,13,0.00
2012-11-26,31.8,21.7,8.8,24.0,14.1,2.8,87,73,53,30.32,30.04,6,0,6,0.00
2012-11-27,33.6,20.4,5.2,17.1,10.6,0.8,85,67,47,30.32,30.14,16,3,16,0.00
2012-11-28,44.2,27.2,11.7,26.6,17.5,6.7,85,68,46,30.30,30.14,10,1,10,0.00
2012-11-29,52.2,36.4,23.7,34.6,27.6,19.0,85,71,51,30.15,29.99,9,1,9,0.00
2012-11-30,43.3,38.4,35.8,37.9,34.3,30.8,89,85,80,30.12,30.00,13,5,13,0.00
2012-12-1,52.7,43.2,33.8,51.0,40.6,31.1,94,91,85,30.10,29.79,8,2,8,0.06
2012-12-2,57.2,48.3,34.9,50.8,44.8,31.9,94,88,70,30.00,29.78,6,1,6,0.00
2012-12-3,62.8,52.8,41.9,60.5,50.2,40.0,96,91,77,29.96,29.64,20,4,20,0.00
2012-12-4,54.7,41.7,26.1,40.0,30.6,15.8,82,66,46,30.29,29.88,18,2,18,0.00
2012-12-5,36.7,27.4,16.3,25.6,18.0,10.2,81,68,50,30.37,30.11,10,2,10,0.00
2012-12-6,43.7,37.1,29.7,35.6,31.5,25.0,87,80,72,30.11,29.79,13,3,13,0.00
2012-12-7,40.8,35.3,30.2,30.6,28.2,26.4,89,76,60,29.93,29.86,14,2,14,0.00
2012-12-8,40.8,32.5,27.1,29.2,26.5,23.2,86,79,64,30.03,29.88,13,3,13,0.00
2012-12-9,34.0,32.4,31.3,32.1,30.3,27.6,95,92,83,30.02,29.65,12,3,12,0.06
2012-12-10,32.2,28.9,24.4,30.9,26.0,21.5,95,89,80,29.87,29.65,10,0,10,0.02
2012-12-11,30.0,23.8,12.7,25.5,19.3,10.4,91,83,74,30.03,29.85,18,4,18,0.00
2012-12-12,43.2,33.4,22.8,29.7,25.5,18.9,88,73,58,30.13,30.02,15,4,15,0.24
2012-12-13,44.4,32.5,21.7,29.0,24.1,18.6,88,72,53,30.12,29.98,20,2,20,0.00
2012-12-14,47.5,32.9,18.3,34.4,26.3,15.5,90,78,58,30.11,29.88,7,1,7,0.00
2012-12-15,43.7,40.7,35.4,42.4,38.3,30.7,95,91,80,29.89,29.47,13,2,13,0.41
2012-12-16,43.7,38.5,33.6,42.6,36.2,30.6,96,92,88,29.68,29.46,15,2,15,0.08
2012-12-17,33.4,28.5,24.1,30.8,25.3,21.4,91,88,83,29.70,29.64,9,1,9,0.00
2012-12-18,30.9,28.3,23.9,29.4,26.2,21.6,94,92,89,29.80,29.55,8,2,8,0.00
2012-12-19,33.1,30.4,27.1,30.9,28.5,25.4,95,92,89,29.98,29.78,11,1,11,0.02
2012-12-20,32.4,30.3,25.2,31.5,29.2,24.2,96,96,95,29.79,29.22,23,8,23,0.00
2012-12-21,25.0,17.8,11.1,24.0,16.0,8.8,96,92,90,30.14,29.58,18,3,18,0.00
2012-12-22,27.7,9.8,-3.3,25.4,7.3,-6.6,93,89,85,30.14,29.88,5,0,5,0.00
2012-12-23,22.3,14.3,-1.1,20.5,12.0,-4.4,93,91,86,30.00,29.88,16,2,16,0.00
2012-12-24,23.7,20.5,11.5,22.2,18.6,9.0,94,93,91,30.08,29.86,9,1,9,0.00
2012-12-25,21.4,11.3,5.0,19.1,8.8,2.2,91,90,88,30.30,30.08,14,1,14,0.00
2012-12-26,25.0,19.9,14.2,22.2,17.4,11.8,92,90,86,30.23,30.06,19,6,19,0.00
2012-12-27,25.9,20.7,14.7,22.7,18.0,12.3,91,89,86,30.16,30.05,13,3,13,0.00
2012-12-28,28.8,24.8,22.3,26.6,22.9,20.0,94,93,90,30.05,29.85,5,1,5,0.00
2012-12-29,25.0,19.7,6.1,22.2,17.4,3.1,93,90,88,30.12,29.84,11,2,11,0.00
2012-12-30,28.9,13.5,1.9,26.0,10.7,-1.2,91,89,86,30.22,29.90,13,1,13,0.02
2012-12-31,30.2,18.8,0.0,26.9,15.8,-3.3,90,88,86,30.11,29.88,12,2,13,0.00
2013-1-1,17.2,2.4,-12.3,12.3,-1.9,-16.1,87,82,75,30.18,30.08,9,1,9,0.00